Hourly Data Report for June 10, 2012

All times are specified in Local Standard Time (LST). Add 1 hour to adjust for Daylight Saving Time where and when it is observed.

VICTORIA HARTLAND CS
BRITISH COLUMBIA

48°32'01.800" N
123°27'32.900" W
154.10 m
1018FJ5

Download Data

Hourly Data (June 2012)
Hourly Data Report for June 10, 2012
Temp Definition
°C
Dew Point Temp Definition
°C
Rel Hum Definition
%
Wind Dir Definition
10's deg

Wind Spd Definition
km/h
Visibility Definition
km
Stn Press Definition
kPa
Hmdx Definition


Wind Chill Definition


Weather Definition


TIME
00:00 10.3 5.3 71 29 4   100.36     LegendNANA
01:00 9.8 5.6 75 14 4   100.39     LegendNANA
02:00 9.9 5.6 75 15 2   100.42     LegendNANA
03:00 8.7 5.4 80   0   100.44     LegendNANA
04:00 8.0 5.1 82   0   100.45     LegendNANA
05:00 7.8 5.1 83 16 2   100.50     LegendNANA
06:00 8.6 5.5 81 16 4   100.54     LegendNANA
07:00 10.5 6.1 74 17 4   100.57     LegendNANA
08:00 12.2 5.9 65   0   100.60     LegendNANA
09:00 13.2 6.2 62 18 4   100.60     LegendNANA
10:00 14.1 6.1 59 10 4   100.62     LegendNANA
11:00 15.0 6.5 57 33 2   100.63     LegendNANA
12:00 14.7 7.4 62 2 4   100.66     LegendNANA
13:00 14.3 6.4 59 9 6   100.68     LegendNANA
14:00 14.7 6.0 56 8 6   100.69     LegendNANA
15:00 15.9 5.9 51 19 9   100.67     LegendNANA
16:00 16.1 6.6 53 13 9   100.65     LegendNANA
17:00 15.3 5.9 53 18 9   100.63     LegendNANA
18:00 14.4 6.1 57 17 9   100.60     LegendNANA
19:00 13.8 7.3 65 15 4   100.57     LegendNANA
20:00 13.1 7.8 70 16 4   100.52     LegendNANA
21:00 12.0 7.8 75   0   100.54     LegendNANA
22:00 10.6 7.4 81   0   100.50     LegendNANA
23:00 11.5 7.4 76 33 9   100.48     LegendNANA

Notes on Data Quality.

Legend

  • E = Estimated
  • M = Missing
  • NA = Not Available
  • ‡ = Partner data that is not subject to review by the National Climate Archives
Date modified: